GW1572 Weather Reports


Display with metric or nautical units.
time (UTC)temp
F
wind
direction
speed
MPH
gust
MPH
rain 1hr
in
rain 24hr
in
rain mn
in
humidity
%
barometer
mb
20260903200635 98 342 2.0 3.0 0.00 0.00 0.00 54 1006.7
20260903200012 101 195 1.0 2.0 0.00 0.00 0.00 53 1006.7
20260903195434 100 203 0.0 1.0 0.00 0.00 0.00 60 1006.7
20260903194843 99 170 1.0 1.0 0.00 0.00 0.00 59 1006.7
20260903194213 99 194 1.0 2.0 0.00 0.00 0.00 55 1006.7
20260903193639 98 258 1.0 1.0 0.00 0.00 0.00 54 1007.1
20260903193025 98 211 1.0 1.0 0.00 0.00 0.00 57 1007.1
20260903192439 98 191 2.0 2.0 0.00 0.00 0.00 59 1007.4
20260903191821 99 183 2.0 2.0 0.00 0.00 0.00 63 1007.1
20260903191212 96 165 1.0 1.0 0.00 0.00 0.00 65 1007.7
20260903190628 96 170 1.0 1.0 0.00 0.00 0.00 64 1007.7
20260903190031 99 229 1.0 1.0 0.00 0.00 0.00 56 1007.4
20260903185438 98 271 3.0 4.0 0.00 0.00 0.00 58 1007.7
20260903184239 98 295 2.0 3.0 0.00 0.00 0.00 60 1007.7
20260903183621 98 217 1.0 1.0 0.00 0.00 0.00 63 1007.7
20260903182434 93 209 1.0 1.0 0.00 0.00 0.00 72 1007.7
20260903181836 90 190 1.0 1.0 0.00 0.00 0.00 76 1008.1
20260903181249 89 152 0.0 0.0 0.00 0.00 0.00 79 1008.1
20260903180610 90 149 0.0 1.0 0.00 0.00 0.00 77 1008.1
20260903180039 92 134 0.0 0.0 0.00 0.00 0.00 74 1008.1
20260903175445 93 162 0.0 1.0 0.00 0.00 0.00 71 1008.4
20260903174825 94 173 1.0 1.0 0.00 0.00 0.00 68 1008.1
20260903174239 95 4 2.0 2.0 0.00 0.00 0.00 63 1008.1
20260903173015 96 173 1.0 1.0 0.00 0.00 0.00 62 1008.4
20260903172433 95 178 1.0 1.0 0.00 0.00 0.00 65 1008.4
20260903171826 95 166 0.0 1.0 0.00 0.00 0.00 63 1008.4
20260903170014 94 199 1.0 1.0 0.00 0.00 0.00 68 1008.4
20260903165428 94 185 1.0 2.0 0.00 0.00 0.00 65 1008.4
20260903164826 94 203 2.0 3.0 0.00 0.00 0.00 69 1008.8
20260903164224 93 180 1.0 1.0 0.00 0.00 0.00 71 1009.1
20260903163636 93 275 3.0 4.0 0.00 0.00 0.00 70 1008.8
20260903163045 94 181 2.0 2.0 0.00 0.00 0.00 72 1009.1
20260903162415 93 206 2.0 3.0 0.00 0.00 0.00 69 1009.1
20260903161805 93 187 1.0 2.0 0.00 0.00 0.00 69 1009.1
20260903161249 92 206 2.0 2.0 0.00 0.00 0.00 74 1009.1
20260903155408 92 167 1.0 1.0 0.00 0.00 0.00 74 1009.1
20260903154825 92 11 1.0 2.0 0.00 0.00 0.00 71 1009.1
20260903154226 91 183 0.0 1.0 0.00 0.00 0.00 75 1009.1
20260903153632 91 196 1.0 1.0 0.00 0.00 0.00 75 1009.1
20260903153007 90 166 0.0 0.0 0.00 0.00 0.00 76 1009.1
20260903152413 90 205 0.0 1.0 0.00 0.00 0.00 77 1009.4
20260903151835 89 137 0.0 1.0 0.00 0.00 0.00 80 1009.4
20260903151219 88 149 0.0 0.0 0.00 0.00 0.00 81 1009.4
20260903150626 87 147 1.0 1.0 0.00 0.00 0.00 80 1009.4
20260903150044 86 161 0.0 0.0 0.00 0.00 0.00 83 1009.1
20260903145436 86 311 1.0 2.0 0.00 0.00 0.00 86 1009.1
20260903144818 85 185 1.0 1.0 0.00 0.00 0.00 87 1009.1
20260903144213 85 153 0.0 1.0 0.00 0.00 0.00 87 1009.4
20260903143651 84 108 0.0 1.0 0.00 0.00 0.00 88 1009.1
20260903143033 84 76 1.0 1.0 0.00 0.00 0.00 89 1009.4
20260903142447 82 117 0.0 1.0 0.00 0.00 0.00 92 1009.4
20260903141841 82 168 1.0 1.0 0.00 0.00 0.00 95 1009.4
20260903141221 81 133 0.0 0.0 0.00 0.00 0.00 95 1009.1
20260903140647 81 140 0.0 0.0 0.00 0.00 0.00 96 1009.1
20260903140010 80 134 0.0 0.0 0.00 0.00 0.00 97 1009.4
20260903135422 80 134 0.0 0.0 0.00 0.00 0.00 98 1009.1
20260903134229 78 168 1.0 2.0 0.00 0.00 0.00 99 1009.4
20260903133643 78 165 1.0 1.0 0.00 0.00 0.00 99 1009.4
20260903133012 77 150 0.0 0.0 0.00 0.00 0.00 99 1009.4
20260903132442 77 144 0.0 0.0 0.00 0.00 0.00 99 1009.4
20260903131849 76 145 0.0 0.0 0.00 0.00 0.00 99 1009.1
20260903131223 76 142 0.0 0.0 0.00 0.00 0.00 99 1009.4
20260903130610 75 154 0.0 0.0 0.00 0.00 0.00 99 1009.4
20260903130019 75 132 0.0 0.0 0.00 0.00 0.00 99 1009.8
20260903125448 74 144 0.0 0.0 0.00 0.00 0.00 99 1009.8
20260903124840 74 143 0.0 0.0 0.00 0.00 0.00 99 1009.8
20260903123623 74 142 0.0 0.0 0.00 0.00 0.00 99 1009.4
20260903123015 74 142 0.0 0.0 0.00 0.00 0.00 99 1009.8
20260903122448 73 142 0.0 0.0 0.00 0.00 0.00 99 1009.4
20260903121846 73 142 0.0 0.0 0.00 0.00 0.00 99 1009.4
20260903121235 73 142 0.0 0.0 0.00 0.00 0.00 99 1009.8
20260903120606 73 142 0.0 0.0 0.00 0.00 0.00 99 1009.4
20260903115439 73 142 0.0 0.0 0.00 0.00 0.00 99 1009.4
20260903114815 73 142 0.0 0.0 0.00 0.00 0.00 99 1009.4
20260903114218 72 142 0.0 0.0 0.00 0.00 0.00 99 1009.4
20260903113613 72 143 0.0 0.0 0.00 0.00 0.00 99 1009.4
20260903113040 72 143 0.0 0.0 0.00 0.00 0.00 99 1009.4
20260903112442 72 142 0.0 0.0 0.00 0.00 0.00 99 1009.4
20260903111840 72 143 0.0 0.0 0.00 0.00 0.00 99 1009.4
20260903111238 72 144 0.0 0.0 0.00 0.00 0.00 99 1009.1
20260903110016 72 143 0.0 0.0 0.00 0.00 0.00 99 1009.1
20260903104807 72 134 0.0 0.0 0.00 0.00 0.00 99 1009.1
20260903103014 72 129 0.0 0.0 0.00 0.00 0.00 99 1008.8
20260903102426 72 140 0.0 0.0 0.00 0.00 0.00 99 1008.8
20260903101226 72 140 0.0 0.0 0.00 0.00 0.00 99 1008.8
20260903100036 72 124 0.0 0.0 0.00 0.00 0.00 99 1008.8
20260903095419 72 136 0.0 0.0 0.00 0.00 0.00 99 1008.8
20260903094811 72 122 0.0 0.0 0.00 0.00 0.00 99 1008.8
20260903093017 72 139 0.0 0.0 0.00 0.00 0.00 99 1008.8
20260903092412 73 138 0.0 0.0 0.00 0.00 0.00 99 1008.8
20260903091837 73 136 0.0 0.0 0.00 0.00 0.00 99 1008.8
20260903091237 73 134 0.0 0.0 0.00 0.00 0.00 99 1008.8
20260903090638 73 134 0.0 0.0 0.00 0.00 0.00 99 1008.8
20260903090044 73 132 0.0 0.0 0.00 0.00 0.00 99 1008.4
20260903085441 73 135 0.0 0.0 0.00 0.00 0.00 99 1008.8
20260903084817 73 135 0.0 0.0 0.00 0.00 0.00 99 1008.8
20260903084237 73 131 0.0 0.0 0.00 0.00 0.00 99 1008.8
20260903083050 73 135 0.0 0.0 0.00 0.00 0.00 99 1008.4
20260903082447 73 135 0.0 0.0 0.00 0.00 0.00 99 1008.4
20260903081849 73 127 0.0 0.0 0.00 0.00 0.00 99 1008.8
20260903081206 73 126 0.0 0.0 0.00 0.00 0.00 99 1008.8
20260903080612 73 141 0.0 0.0 0.00 0.00 0.00 99 1008.4
20260903080026 73 138 0.0 0.0 0.00 0.00 0.00 99 1008.8
20260903075430 74 136 0.0 0.0 0.00 0.00 0.00 99 1008.4
20260903074832 74 133 0.0 0.0 0.00 0.00 0.00 99 1008.4
20260903074223 74 132 0.0 0.0 0.00 0.00 0.00 99 1008.8
20260903073605 74 124 0.0 0.0 0.00 0.00 0.00 99 1008.4
20260903072436 74 124 0.0 0.0 0.00 0.00 0.00 99 1008.4
20260903071845 74 126 0.0 0.0 0.00 0.00 0.00 99 1008.4
20260903071242 74 140 0.0 0.0 0.00 0.00 0.00 99 1008.4
20260903070626 74 138 0.0 0.0 0.00 0.00 0.00 99 1008.4
20260903065443 74 141 0.0 0.0 0.00 0.00 0.00 99 1008.4
20260903064840 74 140 0.0 0.0 0.00 0.00 0.00 99 1008.4
20260903064209 74 142 0.0 0.0 0.00 0.00 0.00 99 1008.4
20260903063612 74 148 0.0 0.0 0.00 0.00 0.00 99 1008.4
20260903063035 74 142 0.0 0.0 0.00 0.00 0.00 99 1008.8
20260903062413 74 150 0.0 0.0 0.00 0.00 0.00 99 1008.8
20260903061826 74 148 0.0 0.0 0.00 0.00 0.00 99 1008.8
20260903061223 75 148 0.0 0.0 0.00 0.00 0.00 99 1008.8
20260903060643 75 146 0.0 0.0 0.00 0.00 0.00 99 1008.4
20260903060022 75 145 0.0 0.0 0.00 0.00 0.00 99 1008.8
20260903055421 75 137 0.0 0.0 0.00 0.00 0.00 99 1008.4
20260903054841 75 143 0.0 0.0 0.00 0.00 0.00 99 1008.8
20260903054241 75 146 0.0 0.0 0.00 0.00 0.00 99 1008.4
20260903053630 75 144 0.0 0.0 0.00 0.00 0.00 99 1008.1
20260903053045 75 138 0.0 0.0 0.00 0.00 0.00 99 1008.4
20260903052414 75 122 0.0 0.0 0.00 0.00 0.00 99 1008.4
20260903051836 75 131 0.0 0.0 0.00 0.00 0.00 99 1008.1
20260903051246 75 140 0.0 0.0 0.00 0.00 0.00 99 1008.4
20260903050044 75 132 0.0 0.0 0.00 0.00 0.00 99 1008.1
20260903045423 75 142 0.0 0.0 0.00 0.00 0.00 99 1008.4
20260903044820 76 132 0.0 0.0 0.00 0.00 0.00 99 1008.1
20260903044241 76 147 0.0 0.0 0.00 0.00 0.00 99 1008.1
20260903043608 76 145 0.0 0.0 0.00 0.00 0.00 99 1007.7
20260903042436 76 139 0.0 0.0 0.00 0.00 0.00 99 1008.1
20260903041809 76 144 0.0 0.0 0.00 0.00 0.00 99 1008.1
20260903040636 76 144 0.0 0.0 0.00 0.00 0.00 99 1008.1
20260903033647 77 141 0.0 0.0 0.00 0.00 0.00 99 1008.8
20260903033021 77 136 0.0 0.0 0.00 0.00 0.00 99 1008.4
20260903032429 77 141 0.0 0.0 0.00 0.00 0.00 99 1008.4
20260903031847 77 135 0.0 0.0 0.00 0.00 0.00 98 1008.4
20260903031227 77 144 0.0 0.0 0.00 0.00 0.00 98 1008.1
20260903030031 77 132 0.0 0.0 0.00 0.00 0.00 98 1008.4
20260903025421 78 121 0.0 0.0 0.00 0.00 0.00 97 1008.4
20260903024819 78 136 0.0 0.0 0.00 0.00 0.00 97 1008.8
20260903024240 78 135 0.0 0.0 0.00 0.00 0.00 97 1008.8
20260903023031 78 124 0.0 0.0 0.00 0.00 0.00 96 1008.4
20260903022413 78 138 0.0 0.0 0.00 0.00 0.00 96 1008.8
20260903021831 78 134 0.0 0.0 0.00 0.00 0.00 96 1008.4
20260903021225 78 147 0.0 0.0 0.00 0.00 0.00 96 1008.4
20260903020614 78 144 0.0 0.0 0.00 0.00 0.00 95 1008.4
20260903020031 78 140 0.0 0.0 0.00 0.00 0.00 95 1008.4
20260903014825 78 137 0.0 0.0 0.00 0.00 0.00 94 1008.1
20260903013041 79 136 0.0 0.0 0.00 0.00 0.00 94 1008.4
20260903012417 79 138 0.0 0.0 0.00 0.00 0.00 94 1008.4
20260903011247 79 131 0.0 0.0 0.00 0.00 0.00 93 1008.4
20260903010631 79 132 0.0 0.0 0.00 0.00 0.00 92 1008.1
20260903010042 80 131 0.0 0.0 0.00 0.00 0.00 92 1008.1
20260903005428 80 132 0.0 0.0 0.00 0.00 0.00 92 1008.1
20260903004849 80 127 0.0 0.0 0.00 0.00 0.00 91 1007.7
20260903004227 80 135 0.0 0.0 0.00 0.00 0.00 91 1008.1
20260903003640 81 124 0.0 0.0 0.00 0.00 0.00 90 1007.7
20260903002418 81 143 0.0 0.0 0.00 0.00 0.00 88 1007.7
20260903001845 82 145 0.0 0.0 0.00 0.00 0.00 88 1007.7
20260903001207 82 136 0.0 0.0 0.00 0.00 0.00 87 1007.7
20260903000622 83 140 0.0 0.0 0.00 0.00 0.00 86 1007.7
20260903000030 84 141 0.0 0.0 0.00 0.00 0.00 83 1007.7
20260902235426 85 136 0.0 0.0 0.00 0.00 0.00 81 1007.7
20260902234827 86 136 0.0 0.0 0.00 0.00 0.00 79 1007.7
20260902234231 87 134 0.0 0.0 0.00 0.00 0.00 77 1007.7
20260902232448 92 151 0.0 0.0 0.00 0.00 0.00 71 1007.7
20260902231807 93 143 0.0 0.0 0.00 0.00 0.00 69 1007.7
20260902230636 94 124 0.0 0.0 0.00 0.00 0.00 67 1007.7
20260902225422 96 147 0.0 0.0 0.00 0.00 0.00 65 1007.7
20260902224832 96 156 0.0 0.0 0.00 0.00 0.00 65 1007.7
20260902224238 97 171 0.0 0.0 0.00 0.00 0.00 65 1007.7
20260902223649 97 148 0.0 0.0 0.00 0.00 0.00 64 1008.1
20260902223034 98 162 0.0 0.0 0.00 0.00 0.00 64 1008.1
20260902222413 97 165 0.0 1.0 0.00 0.00 0.00 65 1008.1
20260902221814 97 196 0.0 0.0 0.00 0.00 0.00 65 1007.7
20260902221219 97 139 0.0 0.0 0.00 0.00 0.00 65 1007.7
20260902220629 98 149 0.0 1.0 0.00 0.00 0.00 64 1008.1
20260902220047 98 182 1.0 1.0 0.00 0.00 0.00 64 1008.1
20260902215407 98 181 0.0 1.0 0.00 0.00 0.00 63 1007.7
20260902214848 98 168 1.0 1.0 0.00 0.00 0.00 64 1007.7
20260902214236 97 143 0.0 1.0 0.00 0.00 0.00 59 1008.1
20260902213633 97 285 2.0 2.0 0.00 0.00 0.00 56 1007.7
20260902213030 99 74 1.0 1.0 0.00 0.00 0.00 56 1008.1
20260902212428 98 318 1.0 1.0 0.00 0.00 0.00 58 1007.7
20260902211842 98 208 1.0 1.0 0.00 0.00 0.00 60 1007.7
20260902210614 98 143 1.0 1.0 0.00 0.00 0.00 55 1007.7
20260902210017 97 68 1.0 2.0 0.00 0.00 0.00 56 1008.1
20260902205407 99 314 1.0 2.0 0.00 0.00 0.00 56 1008.1
20260902204845 100 160 1.0 1.0 0.00 0.00 0.00 56 1008.4
20260902204243 98 157 1.0 2.0 0.00 0.00 0.00 55 1008.4
20260902203641 98 207 1.0 1.0 0.00 0.00 0.00 53 1008.4
20260902203013 97 14 1.0 1.0 0.00 0.00 0.00 55 1008.8
20260902202412 97 73 1.0 1.0 0.00 0.00 0.00 56 1008.4
20260902201809 97 272 2.0 2.0 0.00 0.00 0.00 58 1008.8
20260902201247 99 3 3.0 3.0 0.00 0.00 0.00 54 1008.8